ECMWFFLT2_925_thetae_132.txt.gz
Theta_e
341 339 339 339 339 341 342 343 344 343 343 342 342 342 342 341 341 339 336 334 334 332 330 330 330 327 323 320 317 312 309 312 318 324 327 327 327 325 325 326 328 330 331 331 332 330 330 331 330 327 328 332 335 336 335 335 335 332 333 331 334 335
342 341 340 339 339 340 342 343 343 343 343 342 343 342 342 341 341 340 337 334 336 336 335 336 335 333 328 325 321 314 311 310 314 322 327 326 325 325 325 326 327 329 330 331 332 331 331 330 330 329 329 333 337 337 335 336 336 333 333 334 336 335
343 342 341 340 340 339 340 342 343 343 342 342 343 342 342 342 342 341 338 337 340 341 341 341 340 338 334 328 325 321 316 312 312 318 324 326 326 325 325 325 327 328 329 330 330 334 337 335 332 330 328 331 335 338 337 336 335 333 333 335 335 334
344 342 342 341 339 339 339 340 342 343 343 343 343 343 344 344 344 343 342 341 343 343 342 342 342 341 338 332 328 326 322 318 314 314 318 322 323 325 325 325 326 327 328 328 331 338 341 339 338 335 331 329 332 338 338 334 334 334 334 334 333 332
345 343 342 340 338 338 338 339 341 342 343 344 343 344 345 345 345 344 344 343 342 342 341 342 342 341 340 337 334 330 327 327 324 319 317 318 322 323 323 324 325 326 326 327 332 338 339 339 339 339 337 333 334 338 337 333 333 334 334 334 333 332
345 343 342 339 337 338 338 338 339 341 343 344 344 344 344 344 344 344 344 343 342 341 341 342 341 341 342 341 340 337 336 337 336 333 328 329 332 331 329 326 326 328 328 328 331 335 336 336 337 339 339 338 337 338 337 335 334 333 333 334 335 334
344 343 341 338 338 338 338 338 338 340 342 343 343 343 343 343 343 343 343 343 341 341 340 341 341 340 341 340 341 341 340 340 340 339 336 336 338 337 336 333 329 331 332 330 332 333 333 333 334 336 337 338 338 337 336 335 334 334 333 333 335 335
343 341 339 338 338 338 338 338 338 339 341 341 341 342 341 341 342 342 342 342 341 340 340 340 340 339 339 338 338 338 339 339 338 339 338 336 337 337 337 335 332 334 334 333 333 332 332 331 332 333 334 335 336 336 335 334 334 335 334 334 336 336
343 340 337 337 337 337 338 338 338 338 340 340 341 341 340 340 341 342 342 342 340 339 338 338 338 338 338 337 338 337 338 338 337 337 338 336 336 337 336 334 334 335 335 334 334 332 330 330 331 332 333 334 334 335 335 334 334 335 335 335 336 336
341 338 337 337 336 337 337 337 338 338 339 339 340 340 340 340 341 341 341 340 340 339 337 337 337 338 338 340 341 340 339 339 338 339 340 338 337 337 337 336 336 336 335 335 334 333 332 330 331 331 332 334 334 335 335 334 334 335 335 335 336 336
339 337 337 336 336 336 336 337 337 337 338 338 339 339 339 340 340 340 340 339 338 337 338 338 338 338 340 342 343 342 341 340 340 339 340 340 340 339 338 338 338 337 337 337 336 335 335 333 333 332 332 332 334 334 335 336 335 336 335 335 336 336
337 336 337 336 336 337 337 337 336 337 337 336 339 339 338 339 339 338 339 338 336 335 338 339 340 339 340 342 342 341 341 340 341 341 342 341 340 340 340 341 340 339 338 338 337 336 336 335 335 335 334 333 333 333 334 335 335 336 336 336 336 336
337 336 337 337 337 338 338 337 337 338 335 335 338 338 338 338 339 339 339 339 338 338 339 340 341 340 341 342 342 342 341 340 340 341 341 340 339 340 341 341 340 339 339 338 337 337 338 336 335 336 335 335 334 334 333 333 335 336 336 335 336 336
337 336 337 338 338 338 339 338 338 338 335 335 337 336 338 339 340 341 340 341 341 340 341 341 341 341 342 343 342 343 341 340 340 340 341 340 339 340 341 341 341 340 340 339 337 338 338 337 336 337 336 336 335 334 334 334 335 336 336 335 336 337
337 336 338 339 339 339 339 338 338 337 335 336 337 337 340 340 341 341 341 342 341 341 341 341 341 341 342 342 342 342 342 341 340 340 341 340 340 341 341 341 341 341 340 339 338 338 338 337 337 337 337 337 336 336 336 334 334 335 336 336 336 337
336 337 338 339 339 340 339 339 339 338 337 337 338 340 341 341 342 342 342 342 342 341 341 341 342 341 341 342 341 341 341 341 340 340 340 340 340 340 339 339 339 340 340 340 339 339 339 338 338 338 338 337 337 338 338 336 335 336 337 337 337 337
337 338 339 339 340 340 339 339 339 338 338 339 340 341 341 342 342 342 341 342 342 341 341 341 341 341 341 341 341 340 340 340 340 340 339 340 339 338 338 338 338 338 338 339 339 339 339 339 339 339 339 339 339 339 339 338 337 337 337 337 336 336
338 339 339 339 340 340 340 340 340 340 338 340 342 342 342 343 342 342 342 341 342 341 341 341 341 341 340 339 340 339 339 339 339 340 339 339 339 338 338 338 337 338 338 339 339 340 340 339 339 339 339 339 339 339 339 339 338 338 339 338 337 336
340 340 339 339 339 339 340 339 340 340 340 341 342 342 342 342 342 342 342 342 342 341 341 341 341 340 340 339 339 339 339 339 339 339 339 339 339 338 338 337 338 338 339 339 339 340 339 339 339 338 339 338 338 339 339 339 339 339 339 339 339 337
341 340 339 339 339 339 340 338 337 337 338 340 341 343 343 341 342 342 341 342 341 341 341 340 340 340 340 339 339 339 339 339 338 338 338 338 337 337 337 337 338 338 339 339 339 339 339 339 339 338 338 337 338 338 337 338 339 339 340 340 340 339
341 340 339 339 338 338 338 338 337 336 335 337 338 340 343 342 342 342 342 342 341 341 340 340 340 340 339 339 339 340 340 339 339 338 338 338 337 337 337 337 337 337 337 338 338 338 338 338 338 339 338 338 337 337 336 336 337 338 339 339 339 339
340 339 339 339 338 337 338 339 339 337 336 337 336 336 339 342 342 342 342 341 341 341 340 340 340 340 340 340 340 340 340 340 340 340 339 338 338 338 338 337 338 337 337 337 337 337 337 337 338 338 338 337 336 335 335 334 335 336 338 339 340 339
340 339 338 338 338 337 338 339 339 338 337 337 337 335 337 340 342 342 341 341 341 341 341 341 341 340 340 341 341 341 340 340 341 341 340 340 339 339 339 338 338 338 338 338 338 337 337 337 337 338 338 338 338 337 336 335 335 337 338 339 339 339
340 339 338 338 338 337 338 339 338 337 337 337 337 336 336 338 342 342 341 341 341 342 341 341 341 341 341 341 341 341 340 339 340 340 340 339 339 339 339 338 337 338 338 338 338 338 337 337 337 338 338 338 338 337 337 336 336 336 336 338 339 339
340 340 339 339 338 338 338 339 338 336 337 336 337 337 334 336 342 342 342 342 342 342 341 341 341 341 341 340 339 339 339 339 339 338 338 338 338 338 337 337 337 336 337 337 338 338 338 338 337 337 338 338 338 337 338 336 335 335 335 336 337 337
340 340 340 339 339 338 338 339 338 337 336 336 336 335 333 336 342 342 342 342 341 342 341 340 340 339 339 339 338 338 338 338 338 337 337 337 336 336 336 335 335 335 335 336 336 336 337 337 337 336 337 338 338 337 335 334 334 336 335 334 334 336
340 339 339 339 339 339 338 339 339 338 337 336 336 335 335 338 341 341 341 342 341 341 339 339 339 339 338 338 338 338 337 337 337 337 336 336 336 335 335 335 335 335 335 334 335 335 335 335 335 335 335 336 336 336 335 334 334 335 335 334 333 334
339 339 339 339 339 339 338 338 338 337 336 336 337 337 338 340 341 341 341 341 341 339 339 338 338 338 338 337 337 337 337 337 336 336 336 335 335 335 335 335 335 335 334 334 334 335 335 335 334 334 334 334 334 335 335 334 334 333 333 333 333 333
339 339 340 339 339 339 338 338 338 337 336 337 336 336 340 341 340 341 341 340 340 339 339 338 338 337 337 336 336 335 336 336 335 335 335 335 334 334 334 334 334 334 334 334 334 334 334 334 334 334 334 334 333 333 333 333 333 331 331 333 333 333
339 340 340 339 339 339 339 338 337 337 336 336 335 334 338 341 340 340 340 339 339 338 338 338 337 337 336 335 335 334 334 334 334 334 333 333 333 333 333 333 333 333 333 333 333 334 334 333 333 333 333 333 333 333 332 332 331 330 331 332 332 332
340 341 340 339 340 339 339 338 337 336 335 334 334 333 336 340 340 339 339 339 338 338 337 337 335 335 335 334 334 332 332 332 332 332 332 332 332 332 332 332 332 332 332 332 333 333 333 333 333 333 333 333 332 332 331 331 330 330 330 330 331 331
341 340 339 338 339 339 338 337 335 335 334 333 334 332 334 339 339 339 338 337 337 336 336 335 334 334 333 332 331 330 330 330 331 331 331 331 331 331 330 330 331 331 331 331 332 332 332 333 333 333 333 332 332 332 331 330 329 329 330 330 331 331
340 339 339 339 339 338 336 335 334 334 334 334 333 331 334 338 338 338 337 336 336 335 334 333 333 333 332 330 329 329 330 330 330 330 330 330 330 330 330 330 330 330 331 331 332 332 332 332 333 332 332 332 332 332 332 331 330 329 329 330 331 330
339 339 338 338 338 336 335 334 334 334 334 334 333 332 335 337 337 336 336 335 334 333 333 332 332 331 330 329 329 329 329 329 329 329 329 329 329 329 329 330 330 331 331 332 332 332 332 332 332 332 332 332 331 332 332 332 331 330 329 330 331 330
337 337 337 337 336 334 334 334 334 335 334 334 333 332 335 336 335 335 334 333 333 332 331 331 330 329 328 328 328 328 328 328 328 328 328 328 328 329 329 329 330 331 331 332 332 332 332 332 332 331 331 331 331 331 331 331 331 330 330 330 330 330
337 336 336 336 335 334 334 335 335 335 334 334 334 333 334 335 334 334 333 332 331 330 330 329 329 328 328 327 327 326 326 326 326 327 327 327 327 327 327 328 328 329 330 331 331 331 332 331 331 331 331 331 331 330 330 330 331 330 330 331 330 330
336 335 335 335 335 335 336 335 335 335 335 335 335 334 334 334 333 332 331 330 330 329 328 328 328 328 326 326 325 325 325 325 325 325 326 326 326 326 326 326 327 328 329 329 329 330 331 331 330 330 330 330 330 329 329 330 330 330 330 330 330 330

ECMWFFLT2_925_thetae_135.txt.gz
Theta_e
342 342 343 342 342 343 343 343 343 343 343 342 342 342 340 340 337 332 331 330 328 326 325 324 321 316 313 310 309 309 310 315 321 325 327 327 327 327 326 327 329 330 331 330 329 329 328 324 325 331 331 328 329 330 332 335 336 335 335 334 332 332
341 342 342 343 343 343 343 344 343 343 344 342 342 341 340 340 337 334 332 331 330 329 329 328 326 323 319 315 312 309 309 313 319 324 326 327 328 327 326 327 328 328 329 330 330 330 330 327 326 328 327 326 331 331 330 334 337 335 334 333 333 334
339 340 341 342 343 344 344 343 343 343 343 342 342 341 340 340 338 335 333 332 333 335 336 335 334 332 326 321 317 312 310 312 318 323 325 327 326 326 327 326 327 327 327 327 328 329 330 331 330 329 326 326 333 334 331 332 336 336 334 335 335 334
336 337 338 341 342 343 343 343 342 342 342 342 342 341 341 340 339 337 334 335 338 340 341 340 340 339 332 327 323 317 313 311 314 319 323 326 326 326 326 326 326 326 326 326 328 332 335 337 337 336 332 330 331 331 332 333 334 335 334 334 335 333
338 337 336 339 341 342 342 342 342 342 342 342 342 341 341 340 340 338 337 339 342 342 342 342 342 341 337 333 330 325 322 318 314 316 319 319 321 323 323 324 323 323 325 325 324 332 338 339 339 339 337 336 334 332 334 335 335 334 333 334 334 333
340 338 337 337 339 341 341 341 341 341 341 342 342 341 342 342 342 341 340 342 342 342 343 343 342 341 339 338 338 334 332 330 325 326 326 320 322 326 328 329 325 324 328 329 325 329 335 336 337 339 338 338 337 336 335 334 335 335 334 334 333 334
339 340 339 334 336 339 340 340 340 341 342 342 342 343 343 344 343 343 342 342 342 341 343 342 341 340 339 339 339 337 336 336 334 336 335 331 333 335 335 335 333 332 333 333 331 331 333 333 334 336 337 336 336 338 337 334 335 334 334 334 333 334
340 341 339 333 334 338 340 341 341 342 342 342 343 343 344 344 344 343 343 342 341 341 342 341 340 340 340 338 338 337 337 337 336 337 337 336 337 337 336 336 335 334 333 333 333 333 333 332 332 333 336 335 334 336 337 336 334 334 334 334 334 334
341 341 338 333 335 338 339 340 341 341 341 343 343 343 343 343 343 343 343 342 341 341 341 339 339 339 339 339 339 339 338 338 337 337 338 337 335 336 337 337 335 335 335 334 333 333 333 331 330 332 333 333 333 334 335 335 334 334 334 334 334 334
342 340 336 334 336 337 337 339 341 340 340 342 342 342 343 342 342 342 342 341 340 341 340 339 338 338 338 339 339 340 340 339 339 339 339 338 336 335 337 338 337 336 336 335 335 335 334 333 332 333 333 332 333 333 333 335 335 334 333 333 334 334
341 339 335 335 337 337 336 337 339 340 340 341 342 341 342 341 341 342 342 341 340 340 340 339 338 338 338 337 338 340 339 339 339 339 339 339 338 337 337 337 337 336 336 336 336 336 336 335 334 334 334 334 334 334 334 334 334 335 335 335 335 335
341 338 336 336 338 338 338 337 337 340 340 340 340 341 341 341 341 341 341 340 339 339 338 338 338 338 338 338 339 340 339 339 338 338 339 339 338 339 339 338 337 337 337 337 336 336 336 336 335 335 335 335 335 335 335 334 333 333 334 335 335 335
341 338 336 336 338 338 339 338 337 338 339 339 340 340 339 340 341 341 340 339 337 337 337 337 338 339 339 339 340 340 340 339 339 339 339 340 340 339 339 338 339 339 339 339 338 338 337 336 336 335 335 334 334 335 336 335 334 333 333 334 335 335
339 337 335 336 338 338 338 337 336 338 339 339 340 339 338 339 340 340 339 338 336 335 336 337 338 339 339 340 341 341 341 341 340 340 340 340 340 339 338 338 339 340 340 340 339 339 338 337 337 336 336 335 335 336 336 336 335 335 334 333 334 335
337 336 336 337 338 337 336 336 337 338 338 339 339 338 339 339 339 338 337 337 336 335 336 337 339 339 339 341 342 342 342 341 340 340 339 340 340 339 339 339 340 340 340 340 340 339 339 338 338 338 338 337 337 337 336 336 336 337 335 334 334 335
337 335 335 337 339 337 336 336 337 336 336 337 337 337 338 338 338 338 338 338 339 339 339 340 340 340 340 341 342 341 341 341 340 340 340 339 339 339 338 338 339 338 338 338 338 338 338 339 339 339 339 338 338 338 338 338 338 338 338 336 336 335
337 337 336 338 339 338 336 336 337 335 335 337 337 338 338 339 339 339 340 340 341 341 340 341 340 340 341 341 341 341 340 341 340 340 339 340 339 338 338 338 338 337 337 337 337 338 338 338 339 339 339 339 338 338 338 339 339 339 339 338 338 337
338 338 337 338 338 338 337 337 337 336 336 337 339 340 339 340 340 339 341 342 341 341 340 341 341 341 340 340 341 340 340 340 339 339 339 339 338 338 338 338 338 337 337 337 337 338 339 339 339 339 339 339 338 338 338 338 338 338 339 339 338 338
339 338 337 338 339 339 340 339 338 337 337 338 339 339 339 339 339 338 339 341 341 341 340 341 341 341 340 339 340 339 339 339 338 338 339 339 338 337 338 338 338 337 337 337 338 338 338 338 338 339 338 338 338 337 337 337 337 337 337 337 338 338
339 337 338 340 340 340 340 339 338 337 338 340 340 339 340 339 339 339 338 338 340 341 341 341 340 341 339 337 338 339 339 339 338 337 337 338 337 337 337 338 337 337 337 337 337 337 337 337 338 338 337 337 338 337 337 336 335 335 335 335 336 337
338 337 339 340 339 340 340 339 339 337 338 340 340 340 339 339 339 338 337 337 339 341 340 340 340 340 338 336 337 339 339 339 338 338 338 338 337 337 337 337 338 338 337 337 337 337 337 337 337 337 337 337 337 336 336 335 334 334 335 335 336 337
337 337 340 340 339 339 339 339 339 337 337 339 340 340 340 339 338 338 336 338 340 340 340 339 339 339 338 336 337 339 340 340 339 339 340 339 339 338 338 338 338 338 337 337 337 337 337 337 337 336 336 336 337 336 335 334 334 335 335 335 336 337
338 338 339 339 338 339 339 339 338 338 338 339 339 340 339 338 338 337 336 338 340 340 340 339 339 340 339 339 340 340 340 340 340 340 340 339 339 338 338 338 337 337 337 337 337 337 337 336 336 335 335 337 338 338 337 334 334 334 333 333 335 337
339 339 339 338 337 338 338 338 338 338 338 338 339 339 338 337 338 337 337 339 340 341 341 339 340 341 340 340 341 340 340 340 339 339 339 338 337 337 337 336 335 336 336 336 337 336 335 335 335 336 336 337 337 337 338 336 333 333 332 333 335 335
339 339 338 338 337 336 338 338 338 337 337 337 337 337 336 337 337 337 337 340 340 340 341 341 341 341 341 340 339 339 339 339 338 338 337 337 336 336 336 335 335 335 335 335 336 335 334 334 334 335 335 336 336 337 338 335 332 333 333 333 334 332
339 338 338 338 337 336 337 338 338 337 336 335 335 335 336 337 337 337 339 341 341 340 341 341 341 340 340 339 339 338 338 337 337 337 337 336 335 335 335 335 335 334 334 334 334 334 335 334 333 333 334 335 336 336 335 334 334 334 333 332 332 331
339 338 337 337 337 337 338 338 338 337 336 336 335 335 336 337 337 338 340 341 341 341 341 340 339 339 338 338 338 337 337 337 336 336 336 335 335 335 335 334 334 333 333 333 333 334 334 334 334 333 333 333 333 334 334 333 334 334 334 333 331 330
339 338 337 337 337 337 338 338 337 336 336 336 336 336 336 337 338 340 340 340 341 340 339 339 338 338 337 337 336 336 336 336 335 335 335 334 334 333 333 333 333 333 333 333 333 333 333 333 333 333 333 332 332 333 333 333 333 333 334 333 331 330
339 338 338 338 337 337 338 338 336 335 336 336 337 337 337 337 338 340 337 337 340 339 338 338 337 337 336 336 335 335 335 334 334 333 333 333 332 332 332 332 331 331 331 331 331 332 332 332 332 333 333 332 332 332 332 331 331 331 331 332 331 330
339 339 338 338 338 338 338 337 336 336 336 336 337 337 337 336 337 337 334 334 338 338 337 337 336 336 335 335 335 334 334 333 332 332 331 331 331 331 331 330 330 330 330 330 330 331 331 332 332 333 332 332 332 332 332 331 330 330 329 330 331 330
339 339 339 338 338 338 337 337 336 336 337 337 337 336 335 334 334 335 333 333 338 338 337 336 335 335 334 334 333 333 332 331 331 330 330 330 330 329 329 329 329 329 330 330 331 331 332 332 332 332 332 332 332 331 331 331 331 330 329 329 330 330
339 339 339 338 339 338 338 337 336 336 337 336 336 335 334 333 334 334 333 334 337 337 336 335 334 334 333 332 331 330 329 329 329 329 329 329 329 329 329 329 330 330 330 331 331 332 332 332 332 332 331 331 331 331 331 331 331 330 329 329 329 330
339 339 339 338 338 339 338 337 336 335 336 336 335 334 334 334 334 334 334 334 335 335 334 333 332 332 331 330 329 328 328 328 328 328 328 328 329 328 329 329 329 330 330 330 331 331 331 331 331 331 331 331 331 331 330 330 330 330 330 329 329 330
340 339 339 339 338 339 339 337 334 334 335 335 334 334 334 334 334 334 334 334 334 333 332 331 331 330 329 328 328 327 327 328 327 327 327 327 327 327 327 327 328 328 329 329 329 330 330 331 330 330 331 330 330 330 329 329 330 330 330 330 330 330
340 339 339 338 338 338 338 335 333 333 334 334 333 333 334 333 333 334 334 334 333 332 331 330 329 328 327 327 327 327 326 326 326 326 326 326 325 325 325 326 326 327 328 328 328 329 330 330 329 329 330 329 329 328 328 329 330 330 330 330 330 329
339 338 338 337 337 337 336 334 333 333 333 333 333 333 333 333 333 334 333 333 332 331 330 329 328 328 326 326 326 325 325 325 325 325 325 325 324 324 324 325 326 327 327 327 328 328 328 328 327 327 327 326 326 325 326 327 328 329 330 329 330 330
338 337 337 336 336 335 334 333 333 333 333 333 333 333 334 334 333 333 332 331 330 329 328 328 327 327 325 325 325 324 324 324 324 324 324 323 323 323 324 325 326 326 326 327 327 327 326 325 324 324 323 323 323 323 324 325 326 327 328 329 329 329

ECMWFFLT2_925_thetae_138.txt.gz
Theta_e
338 339 339 340 343 343 343 343 343 343 342 342 341 339 338 335 330 326 323 322 320 319 317 313 312 312 313 316 317 315 313 317 323 326 327 326 326 326 328 329 329 329 328 328 328 325 321 318 323 330 332 330 330 332 334 335 335 333 336 336 334 331
339 341 341 342 343 343 343 343 343 343 342 342 341 339 338 334 329 327 326 323 322 322 320 317 315 314 312 311 312 312 312 317 323 326 327 326 326 326 326 327 328 328 328 328 328 327 324 322 326 332 330 326 327 333 334 335 336 334 335 335 333 332
339 342 341 342 343 343 344 343 343 343 342 342 341 339 338 335 331 329 327 326 328 329 328 325 322 319 315 312 311 310 313 318 322 325 327 327 326 326 326 326 327 327 326 326 327 328 326 325 328 330 327 324 326 331 332 333 335 335 334 334 333 333
340 341 342 343 342 343 343 343 343 342 342 342 341 340 338 336 333 329 329 332 336 337 336 333 331 328 323 318 314 310 311 317 322 324 326 327 327 327 326 325 326 326 325 325 325 330 329 328 332 333 332 331 330 331 330 331 334 335 334 334 334 334
341 341 342 342 343 343 343 343 343 342 342 342 341 340 339 337 334 331 332 338 340 340 339 338 337 336 332 327 322 318 313 313 317 321 323 325 325 324 324 323 323 321 323 324 324 329 332 333 336 337 337 337 337 336 334 332 333 334 335 334 333 333
340 341 342 342 343 344 343 342 343 342 342 342 341 340 339 338 336 333 335 340 341 341 341 340 339 338 338 335 332 331 325 317 318 322 320 319 320 323 327 329 326 324 327 330 327 326 330 333 335 334 335 336 337 338 337 335 333 333 334 334 334 333
341 341 342 343 344 344 343 342 342 342 342 342 341 340 339 339 337 336 339 341 341 341 342 341 340 339 339 338 336 336 334 329 328 332 329 325 326 330 335 334 333 332 332 334 332 330 331 332 332 332 332 332 333 336 337 337 335 334 333 333 334 334
341 341 342 343 343 343 343 342 341 342 342 341 340 340 340 340 339 339 341 341 341 342 342 341 341 340 339 338 337 337 337 335 334 336 336 335 335 336 336 336 336 334 334 334 333 333 333 332 332 332 333 332 331 334 336 337 336 335 334 333 334 334
339 339 341 342 343 343 342 341 341 341 341 341 340 340 340 341 341 341 341 341 341 342 341 341 340 340 339 338 338 338 338 337 337 337 338 337 337 336 335 337 337 336 336 336 334 334 333 334 334 335 335 334 333 333 335 337 337 336 334 333 334 333
337 336 338 341 342 341 341 340 340 340 340 341 341 341 342 342 342 342 341 341 341 341 341 341 340 339 338 338 339 339 339 338 338 338 339 338 337 337 337 338 339 338 339 338 338 337 337 337 336 336 336 335 335 334 334 334 335 336 335 334 333 333
337 336 335 338 341 340 339 339 339 340 340 341 341 342 343 342 342 342 341 340 340 341 341 341 339 339 338 338 340 340 340 339 339 339 340 339 338 339 339 339 339 339 340 339 339 338 338 338 336 336 336 336 335 335 334 334 334 334 335 334 333 334
338 337 334 336 339 339 339 339 339 340 340 340 341 342 342 342 342 341 341 340 341 342 341 340 339 338 338 338 340 341 340 340 340 340 339 339 340 340 340 339 339 339 339 339 338 338 338 338 337 336 335 335 336 335 335 335 335 334 334 334 334 334
339 339 336 334 336 337 339 340 339 339 339 340 342 342 342 341 341 341 341 340 340 341 339 339 339 338 339 339 339 339 340 340 340 339 339 339 339 339 339 339 338 338 338 338 339 339 339 338 338 337 336 337 337 337 336 336 336 336 335 334 334 334
340 340 336 333 334 336 339 340 340 340 339 340 342 341 341 341 341 341 341 340 340 340 339 339 339 339 339 338 339 339 339 340 340 340 339 339 339 339 339 339 338 338 339 339 339 339 339 339 338 338 338 338 338 338 337 337 337 337 336 336 335 335
341 338 332 330 334 336 338 339 339 340 340 341 341 341 341 341 340 341 340 340 339 338 338 337 338 338 338 338 339 340 340 341 340 340 339 339 339 339 339 338 338 338 338 337 337 337 337 337 337 338 338 338 339 338 338 338 338 338 337 337 337 337
340 336 331 332 334 335 337 337 338 340 340 340 340 340 340 340 340 341 340 338 337 337 335 336 337 338 339 339 340 341 341 341 340 340 339 339 339 339 338 337 337 337 337 336 336 336 336 336 337 337 337 337 338 338 338 338 338 338 338 338 338 338
339 335 333 335 337 337 337 337 338 340 339 340 340 339 339 339 340 340 339 338 337 337 336 337 338 339 339 339 340 340 340 340 340 340 339 339 339 338 338 337 337 337 337 337 336 336 337 336 337 336 337 336 337 337 337 337 337 337 337 337 338 338
339 336 336 337 338 338 338 337 338 338 338 339 339 338 338 339 339 338 338 337 339 340 339 339 339 340 340 340 340 340 339 340 340 339 339 338 338 338 337 337 337 337 338 337 337 337 337 337 336 336 336 336 336 336 336 337 337 337 337 336 336 336
338 337 337 338 337 338 337 337 337 338 338 339 339 338 339 338 338 337 337 339 341 341 340 340 340 340 340 340 340 339 339 339 339 339 338 337 338 337 337 337 338 337 338 337 337 337 337 337 337 337 337 336 336 336 335 336 336 336 336 335 335 335
337 338 338 337 337 337 337 336 336 337 338 338 338 338 338 338 337 337 338 339 339 340 340 340 340 341 340 339 339 339 339 339 339 338 337 336 337 338 338 338 338 338 337 337 337 337 337 336 336 336 336 335 335 335 335 335 334 335 335 334 334 334
337 338 338 337 337 337 336 336 336 337 338 338 338 338 338 338 338 338 338 338 338 340 341 340 340 340 339 339 337 338 339 339 339 338 338 338 338 338 338 338 338 337 337 336 336 336 336 335 334 335 334 334 333 333 333 333 333 334 334 333 332 332
337 337 338 338 337 337 337 337 337 337 337 338 338 338 338 338 339 338 338 338 338 340 341 340 339 338 338 338 336 337 339 339 339 339 339 339 339 338 338 337 337 336 335 335 336 336 334 333 334 335 333 334 334 333 332 332 333 333 332 331 332 333
338 337 338 338 338 338 338 337 337 337 336 337 338 338 338 338 339 339 338 337 338 340 341 339 338 337 337 338 337 338 339 340 340 340 339 338 338 337 336 336 335 335 335 335 335 335 333 333 335 334 333 335 336 334 333 332 333 332 330 331 332 331
338 338 338 338 338 339 339 338 337 337 337 338 339 339 339 339 339 338 338 337 339 341 340 339 337 337 338 339 338 339 340 340 339 338 338 337 336 336 335 335 334 334 334 334 334 334 333 333 333 333 334 335 335 335 335 333 331 331 331 331 330 330
338 338 339 339 339 339 339 338 337 337 337 338 338 339 339 338 338 337 337 338 340 340 340 339 338 338 339 339 340 340 339 339 338 337 337 336 335 335 334 334 334 333 333 333 333 333 333 333 332 333 334 335 334 335 335 333 331 332 331 331 331 330
337 338 339 339 339 339 339 338 338 336 337 337 337 338 338 338 337 337 337 339 340 340 340 340 339 340 341 340 340 339 338 337 336 336 335 335 335 334 334 334 333 333 333 333 333 333 332 332 331 332 332 333 333 334 334 333 333 333 331 331 331 330
337 337 339 339 339 338 339 338 338 337 337 337 337 337 338 337 337 336 338 340 340 341 341 340 340 340 339 339 338 337 337 336 335 335 334 334 334 333 333 332 332 332 332 332 331 332 331 331 331 331 332 332 332 333 332 332 334 334 333 332 331 330
337 337 338 339 338 338 338 338 338 337 337 338 338 337 336 336 336 336 338 340 341 341 341 340 340 339 338 337 336 336 336 335 334 334 333 333 332 332 332 331 331 331 331 330 330 330 330 331 331 331 332 332 332 332 332 331 332 332 333 333 332 330
337 337 337 338 338 337 337 338 337 337 337 337 337 336 336 336 336 337 339 340 341 340 339 339 338 337 337 336 335 335 335 334 333 332 332 331 330 330 330 330 330 330 329 329 329 330 331 331 331 332 332 332 332 332 331 331 331 330 331 332 332 330
337 337 337 337 337 336 337 337 337 337 337 335 335 335 335 337 337 339 340 340 339 339 338 337 337 336 336 335 334 334 333 333 332 331 330 330 330 329 329 329 329 329 330 330 330 331 331 331 331 331 331 331 331 331 331 331 331 330 330 330 331 330
337 337 337 337 337 336 336 337 337 337 336 335 335 335 336 337 338 340 340 338 338 337 337 336 335 335 334 333 333 332 331 331 330 329 329 329 329 329 329 329 329 329 330 330 331 331 331 331 331 331 331 331 331 331 331 330 330 331 330 330 331 330
337 337 337 337 336 336 336 337 337 336 336 336 336 336 337 338 339 340 338 337 337 336 335 335 334 334 333 331 331 330 329 328 328 328 328 328 328 328 328 328 328 329 329 329 330 330 330 330 330 330 330 330 331 330 330 330 330 330 330 330 330 330
337 336 336 336 336 336 336 337 336 336 336 336 336 337 338 339 339 338 336 336 337 335 334 334 333 332 331 329 329 328 327 327 327 327 327 327 327 327 327 327 328 328 328 328 329 329 330 330 330 330 330 330 330 328 328 328 329 329 330 330 330 329
337 336 336 336 336 336 336 337 336 335 336 336 337 337 337 338 338 336 335 336 336 334 333 333 331 330 329 328 327 327 327 326 326 326 326 326 326 326 326 326 327 327 327 328 329 329 329 328 328 328 328 328 327 325 325 326 327 328 329 329 330 330
338 337 336 336 336 336 336 336 336 336 336 336 336 336 337 337 336 335 335 336 334 332 332 331 330 328 327 327 326 326 325 325 325 325 325 324 324 324 325 325 326 326 327 328 328 327 326 325 324 324 323 323 323 323 323 323 324 325 326 327 328 328
338 338 337 337 337 337 337 336 335 335 335 335 335 335 335 335 334 334 333 333 332 331 330 329 328 327 325 325 325 324 324 324 324 324 324 324 323 323 325 325 326 326 327 326 326 325 323 322 321 321 320 319 320 320 320 320 321 322 323 324 325 326
339 338 337 337 337 336 336 335 334 334 334 333 333 334 334 333 333 332 331 331 330 329 328 328 326 325 325 324 323 323 323 323 323 323 322 322 322 323 324 325 325 325 325 324 324 322 321 320 319 318 318 317 317 317 317 318 319 319 320 321 322 324

ECMWFFLT2_925_thetae_141.txt.gz
Theta_e
341 340 340 340 340 341 342 342 343 343 342 341 340 339 337 335 333 329 325 319 317 315 314 321 326 327 331 331 331 327 319 321 327 328 326 326 327 328 329 329 329 328 328 328 327 323 319 320 322 328 330 331 334 335 334 334 334 333 334 335 335 333
340 340 340 340 341 342 343 343 343 343 342 342 341 338 336 334 330 324 320 318 316 314 312 314 316 319 322 324 328 325 317 319 325 327 326 326 326 327 328 328 328 328 328 327 328 327 323 320 322 330 330 326 330 332 332 332 333 333 334 334 334 333
340 340 340 341 342 343 343 342 343 343 342 342 340 338 336 331 326 322 320 319 318 315 314 313 312 313 313 314 317 316 315 318 324 327 326 326 326 326 326 327 327 327 327 326 326 328 326 323 325 330 329 326 328 329 329 330 333 334 333 334 333 333
339 339 340 342 343 343 343 343 343 343 342 342 339 338 335 330 325 323 323 323 323 322 320 320 318 315 312 310 311 312 314 318 323 326 326 326 326 326 326 326 326 325 325 324 324 327 327 325 328 330 330 332 333 333 333 330 332 335 334 333 333 333
339 338 341 343 342 343 343 343 343 342 342 341 339 338 335 330 327 326 327 331 331 329 329 329 328 323 317 314 311 311 315 319 323 325 326 326 326 326 325 324 323 322 321 323 324 327 329 328 331 334 333 333 333 333 335 334 333 334 335 333 333 333
339 338 342 343 342 343 343 343 343 342 342 341 340 339 336 332 328 329 334 337 335 333 334 335 335 332 327 324 320 315 313 317 321 323 324 324 324 323 325 327 327 325 324 328 329 328 329 329 332 333 332 332 332 331 332 334 335 335 335 335 334 333
339 338 341 342 342 343 343 342 342 342 341 341 340 338 337 333 329 331 338 339 336 335 335 337 338 336 334 332 332 326 318 320 325 325 323 320 321 326 332 333 333 332 331 332 332 332 331 330 331 332 333 334 334 332 331 332 334 336 336 336 335 333
339 339 341 342 342 343 343 342 342 342 342 341 340 339 338 335 332 332 338 340 339 338 338 337 338 337 337 335 336 335 330 330 333 334 331 328 329 334 335 335 336 336 335 334 334 334 333 333 333 334 336 336 335 334 333 332 333 335 337 336 335 334
339 340 342 341 341 342 342 342 342 342 341 341 340 339 338 337 334 333 338 341 340 340 340 339 338 338 337 337 337 337 336 336 336 337 337 336 336 336 335 336 338 337 336 336 336 336 335 336 337 337 337 336 336 335 334 333 333 334 335 336 336 334
338 340 341 341 341 341 341 341 342 341 340 340 340 339 338 338 337 336 339 341 340 341 341 340 339 338 338 338 338 338 338 338 338 338 338 338 337 337 336 338 338 338 338 337 337 337 337 337 337 338 337 336 336 335 335 334 334 334 334 334 335 335
338 340 340 340 341 341 341 341 341 341 340 340 339 339 339 339 339 339 340 341 341 341 341 341 339 339 338 338 339 339 338 338 338 338 339 339 338 337 338 339 339 339 339 339 339 339 338 338 338 338 337 337 336 336 336 336 335 335 335 334 334 334
339 340 340 341 341 341 341 341 340 340 340 339 339 339 339 340 341 341 341 340 340 341 341 341 340 339 338 338 339 339 339 338 339 339 339 339 339 339 340 340 339 339 339 338 339 339 339 339 338 338 338 337 336 336 337 337 337 336 336 336 335 335
340 340 341 341 341 341 342 341 340 340 339 339 339 339 340 341 341 341 341 340 340 341 341 340 339 339 338 338 339 340 340 339 339 339 339 339 339 340 339 339 339 338 338 338 338 338 338 337 337 337 337 337 337 337 338 337 337 337 337 336 336 335
339 340 340 341 342 341 342 341 340 339 339 339 339 339 341 341 341 341 341 341 340 341 341 339 338 339 339 339 339 340 340 340 340 340 339 339 339 339 338 338 338 338 337 337 336 336 336 336 335 335 335 336 336 337 338 337 338 338 338 337 337 337
336 337 338 339 341 340 341 340 338 338 339 339 339 340 341 341 341 341 341 340 340 341 340 339 338 338 339 339 340 340 340 340 340 340 339 339 338 338 338 337 337 336 336 335 335 335 335 336 335 335 335 335 335 336 336 337 337 337 337 337 337 337
333 334 334 335 338 340 339 337 336 338 339 339 340 340 341 341 340 341 340 340 340 340 339 338 338 338 339 339 339 339 340 340 340 340 339 338 338 338 337 337 336 336 336 336 336 336 336 336 336 336 335 335 335 335 335 335 336 336 336 336 336 336
336 336 335 334 335 338 338 336 337 339 338 338 340 341 341 340 341 340 340 340 340 340 338 337 337 338 338 338 338 339 340 340 339 339 338 338 338 337 337 336 336 337 336 336 337 337 336 336 336 336 336 336 336 335 335 335 335 335 335 335 336 336
338 338 337 336 334 336 336 336 339 339 338 339 340 341 340 340 341 340 340 340 340 339 338 337 336 337 338 338 339 340 339 339 338 338 338 337 337 337 337 336 336 336 336 337 337 337 337 336 336 335 335 335 335 334 334 334 334 334 334 335 335 334
339 338 337 336 334 334 335 337 339 338 339 340 340 340 340 340 340 340 340 340 339 338 337 337 337 338 339 339 339 339 339 338 337 338 338 337 337 337 336 337 337 337 337 337 336 336 336 335 334 334 334 333 332 332 332 333 333 334 334 333 333 332
338 338 336 335 335 335 336 338 337 337 339 340 340 340 340 339 340 340 340 340 339 338 338 339 339 339 339 339 339 339 339 337 337 338 338 336 336 337 337 337 337 337 337 336 336 336 335 334 333 332 332 331 330 331 331 330 332 333 332 330 330 331
338 338 334 333 336 336 336 337 337 338 339 339 339 339 339 339 339 339 339 338 338 339 340 340 340 340 340 339 339 338 338 338 338 338 337 337 338 338 338 337 337 336 336 335 335 335 334 333 333 332 331 330 330 330 329 328 332 333 329 328 330 331
337 337 334 334 335 336 336 336 337 338 338 339 339 339 338 338 338 338 338 338 338 340 340 340 340 340 340 339 337 337 338 338 339 339 339 339 339 338 337 336 335 335 334 334 334 334 333 333 333 333 331 331 331 330 328 328 332 331 327 329 331 329
336 337 335 335 336 336 337 337 337 338 338 339 339 339 338 338 338 338 338 338 339 339 340 340 340 339 339 338 336 336 338 339 339 339 339 338 337 336 335 335 334 334 334 333 333 333 333 332 333 332 330 332 333 332 330 330 331 330 328 330 330 329
337 337 336 336 337 337 337 337 337 337 338 338 338 338 338 338 338 338 338 339 338 338 340 340 340 339 338 338 337 337 338 339 338 338 338 337 336 335 334 334 333 333 333 332 333 332 332 332 332 332 331 332 332 331 332 331 329 329 329 329 329 329
337 337 337 337 337 337 337 337 337 337 338 338 338 338 338 338 339 338 338 338 337 339 340 340 340 339 338 338 339 339 339 339 338 337 337 336 336 335 334 334 333 332 332 332 332 331 331 331 330 332 332 332 331 332 333 331 329 330 330 329 329 330
337 337 337 337 337 336 336 336 337 337 337 337 337 337 338 338 338 338 339 338 337 339 340 339 339 339 339 339 339 340 339 338 337 336 336 336 335 334 334 333 332 332 331 331 331 330 331 330 330 331 332 332 332 333 332 331 331 332 330 329 329 329
337 338 337 336 337 336 336 336 336 336 336 336 336 337 337 337 338 338 338 337 338 339 339 339 339 339 339 340 339 338 338 337 336 336 335 335 334 333 333 332 331 331 331 330 330 330 330 330 330 331 331 331 331 331 331 331 332 332 332 331 330 330
337 338 337 337 337 337 336 336 336 336 336 336 336 337 338 338 338 338 337 337 339 339 339 339 340 339 340 340 338 337 336 336 335 335 334 333 333 332 331 331 330 330 329 329 329 330 330 331 331 331 331 331 331 330 331 331 331 331 331 332 331 330
337 337 337 338 338 337 337 337 336 336 336 336 336 337 338 338 338 338 337 337 339 340 340 340 339 339 339 338 337 336 335 335 334 333 332 332 331 330 330 330 329 329 329 329 329 330 330 330 331 331 330 330 330 330 330 330 330 329 330 332 332 330
336 337 337 337 338 337 337 337 337 337 336 336 336 336 337 338 337 336 336 338 340 340 340 339 338 338 337 336 335 335 334 334 333 332 331 330 330 329 329 329 328 328 328 329 329 330 330 330 330 330 330 330 330 330 330 330 330 330 329 330 331 331
336 337 337 337 338 338 337 337 338 337 337 336 336 336 337 337 336 336 337 339 340 339 338 337 336 336 335 335 334 334 333 333 331 331 330 329 329 328 328 328 328 328 328 328 329 329 330 330 329 328 329 330 330 329 329 329 329 329 329 330 331 331
336 336 337 337 337 337 337 337 337 338 337 337 336 337 337 336 336 336 338 339 338 337 336 335 335 334 334 333 333 332 331 331 330 329 329 328 328 328 327 327 327 328 328 328 328 329 329 329 328 328 329 330 329 328 327 327 326 327 328 329 330 330
335 336 336 337 337 337 337 337 337 337 337 337 337 337 337 336 336 337 339 338 337 336 334 333 333 333 332 331 331 331 329 329 328 327 327 327 326 326 326 326 327 327 327 328 328 328 328 327 326 325 326 326 325 324 323 323 324 325 326 327 327 328
335 335 335 336 336 336 337 337 337 337 337 337 337 337 336 335 336 338 338 338 336 335 333 332 332 331 330 329 329 328 328 327 326 326 326 325 325 325 325 325 326 326 327 327 327 326 325 324 322 321 321 321 321 320 320 320 321 323 323 323 324 325
335 335 335 335 336 336 336 336 336 336 337 336 336 336 335 335 337 338 338 337 336 334 333 332 331 330 328 328 327 327 326 326 325 325 324 324 324 323 324 325 325 326 326 325 324 324 322 321 320 319 318 318 318 317 317 318 318 319 319 320 320 321
335 335 335 335 336 336 336 336 336 336 336 336 335 335 335 335 337 338 337 337 335 333 331 331 329 328 327 326 326 325 325 324 324 324 323 323 323 323 324 325 326 326 325 323 323 322 320 319 318 317 316 316 315 315 315 315 316 316 317 317 318 319
336 335 335 335 335 336 336 336 336 336 335 335 335 334 335 335 336 336 336 336 334 331 330 329 328 326 326 325 324 324 323 323 322 322 322 322 323 323 324 325 325 324 322 322 322 320 318 317 316 315 314 314 314 313 313 313 314 314 314 315 316 317

ECMWFFLT2_925_thetae_144.txt.gz
Theta_e
341 340 340 339 339 340 339 341 342 342 342 341 341 340 338 338 337 335 334 331 327 328 331 333 333 333 333 333 330 323 322 328 329 327 325 327 328 328 328 327 327 327 327 327 326 324 323 322 322 327 331 330 333 332 330 332 332 333 333 334 334 333
341 340 340 339 339 339 340 342 342 342 342 341 341 340 339 338 336 332 331 327 320 318 324 331 331 332 333 331 328 319 319 326 328 327 325 326 328 328 328 328 327 327 327 327 327 326 325 323 323 328 330 328 330 331 330 331 332 333 333 333 333 333
340 340 339 339 339 339 341 343 342 343 341 341 341 339 338 336 333 328 324 319 316 314 316 323 326 329 330 327 324 316 316 323 327 327 325 325 326 327 327 327 326 326 326 325 326 327 327 325 325 329 330 331 333 333 333 334 334 334 334 333 334 333
340 339 339 339 339 340 342 342 342 343 341 342 341 338 336 333 329 323 319 316 313 313 313 316 319 323 324 320 318 315 316 320 325 326 326 326 326 326 326 326 326 325 324 323 323 325 328 328 327 331 332 334 333 332 332 332 334 335 334 334 334 333
339 339 339 339 339 341 343 342 343 342 341 341 339 336 334 330 325 321 319 317 315 315 315 316 316 316 316 313 313 314 316 319 323 326 325 326 325 326 325 324 324 322 322 323 325 326 328 329 329 332 333 332 331 332 333 331 332 334 335 335 334 334
339 338 339 338 339 342 343 342 343 342 341 341 338 336 333 327 323 322 323 321 321 321 320 320 318 316 313 311 311 312 316 319 322 325 325 326 326 325 324 326 328 327 326 328 330 329 329 329 330 332 332 332 333 334 334 332 331 332 335 336 335 335
339 338 339 339 340 342 342 342 343 342 342 341 338 336 332 326 324 327 327 326 328 329 329 327 325 323 319 317 313 312 316 318 321 323 324 324 324 323 326 331 334 334 332 332 333 332 332 331 331 332 333 334 335 335 334 334 333 332 334 335 336 336
339 339 339 340 341 342 342 342 342 342 342 341 339 336 331 327 328 332 331 330 333 335 336 334 333 331 329 327 321 317 320 324 325 325 323 321 322 327 332 335 336 336 335 335 335 335 334 334 334 334 335 336 335 335 335 334 334 333 333 333 335 336
339 339 339 341 342 342 342 342 342 342 341 340 339 336 332 327 331 336 333 331 334 336 337 337 337 335 334 334 332 328 330 333 334 333 331 329 330 334 335 335 337 337 337 336 337 336 336 336 336 336 337 337 336 336 335 334 334 333 333 333 334 334
338 339 340 340 342 342 341 341 341 341 340 340 339 337 334 329 333 339 337 335 336 337 338 337 337 337 337 337 337 336 336 337 337 337 337 336 336 336 335 337 338 338 337 338 337 337 337 337 337 337 337 337 337 337 336 336 335 334 334 334 334 334
337 338 341 341 342 342 341 341 341 341 340 339 339 338 336 331 332 338 339 339 339 338 338 338 337 338 337 337 338 338 337 337 337 337 338 337 337 337 337 338 338 338 338 337 337 337 338 337 337 337 337 337 337 337 337 337 336 336 335 335 335 336
337 338 341 341 341 343 341 341 341 341 340 339 339 338 337 335 333 337 340 340 339 339 339 338 338 338 337 338 338 338 337 337 337 337 338 338 338 338 338 338 338 338 338 337 337 337 337 336 336 336 335 335 336 336 337 337 337 337 337 337 336 336
337 338 342 341 341 343 341 340 341 341 340 339 338 339 338 336 336 338 340 340 339 339 339 339 338 338 337 338 338 338 338 338 338 338 338 338 338 338 338 338 338 337 337 337 336 336 336 335 335 334 334 334 334 335 335 336 337 337 337 337 337 337
337 339 342 341 340 341 340 339 341 341 340 339 338 338 338 337 338 339 340 340 340 340 340 339 338 338 338 337 338 339 339 339 339 339 339 339 338 338 338 337 337 337 337 336 335 336 335 335 335 335 334 334 335 334 334 335 335 336 336 336 336 337
337 340 341 340 339 339 339 339 341 341 340 339 339 338 338 338 339 340 340 340 340 340 340 339 338 338 338 338 338 339 340 339 339 339 339 339 338 338 337 337 336 336 336 335 336 336 336 336 336 335 335 335 335 335 335 334 334 334 334 335 335 335
336 339 340 339 339 337 339 340 340 340 340 339 339 338 338 339 340 340 340 340 340 340 340 340 339 338 337 338 339 339 340 340 340 339 339 338 338 338 337 336 336 336 336 335 335 336 336 336 335 335 335 335 335 334 334 334 334 334 334 334 334 334
336 338 339 338 338 337 338 340 340 339 339 339 339 338 338 340 341 341 341 340 340 340 340 340 338 337 338 338 339 339 340 340 340 338 338 337 337 337 336 336 336 336 336 335 336 336 336 336 335 335 335 334 333 332 332 332 332 333 334 333 333 333
337 338 339 339 339 338 338 339 340 340 338 339 339 338 339 341 341 341 341 340 340 340 340 339 337 337 338 339 339 339 340 340 339 337 337 337 336 336 336 336 335 335 335 336 336 336 336 336 335 335 334 333 332 331 330 330 331 332 332 331 331 332
336 338 339 339 340 340 339 340 341 339 337 338 339 339 340 341 340 340 341 340 340 340 339 338 337 337 338 338 338 339 339 339 337 337 337 336 336 336 336 336 336 336 336 336 336 336 335 335 334 333 332 332 331 329 329 329 330 331 330 328 329 330
334 336 337 337 338 339 340 341 340 338 337 339 339 339 340 340 340 340 340 340 340 340 339 337 337 337 338 338 339 339 339 338 336 337 337 336 336 336 336 337 337 337 337 336 335 335 334 334 333 332 331 330 329 328 328 328 330 331 329 327 329 329
334 336 336 336 336 338 339 340 339 337 338 339 339 339 340 340 340 340 340 340 340 340 338 337 338 339 339 339 339 339 339 338 337 337 337 337 337 337 337 336 336 336 336 335 334 334 334 333 332 331 330 329 327 328 327 327 330 331 328 328 330 328
335 336 337 336 336 336 336 338 337 337 339 339 339 339 340 340 340 340 340 340 340 339 338 338 339 339 339 339 338 338 338 338 337 337 338 337 338 337 336 335 335 335 334 334 334 334 333 331 331 331 329 328 329 328 326 328 330 328 326 328 329 327
334 336 337 337 337 336 336 336 336 337 338 338 339 339 339 340 339 339 339 340 340 339 338 339 339 339 339 339 337 336 337 338 337 338 338 337 337 336 335 335 334 334 333 333 333 333 332 331 331 330 329 329 330 328 327 328 328 325 326 329 328 328
336 337 337 337 338 337 336 336 336 337 338 338 338 339 339 339 339 339 339 340 339 338 339 339 339 340 339 339 337 335 337 338 338 338 337 336 336 335 335 334 333 333 332 332 332 331 331 330 330 330 330 330 329 328 329 329 328 327 328 328 328 328
337 337 338 338 337 336 335 335 336 337 337 338 338 338 338 338 339 339 339 339 338 338 339 340 339 339 338 338 337 337 338 338 338 337 336 335 335 334 334 333 333 332 331 331 331 330 330 330 329 330 331 331 330 331 330 329 329 329 328 328 328 328
338 337 337 337 336 335 335 336 336 336 337 337 337 337 338 338 338 338 338 338 338 338 339 339 340 338 338 338 338 338 339 338 338 337 336 336 335 334 334 333 333 332 331 330 330 329 329 329 329 330 330 331 331 331 330 330 330 329 328 328 328 328
337 337 337 336 335 334 335 336 336 336 337 337 336 337 338 338 338 337 337 338 338 338 338 339 339 339 338 338 338 339 339 338 337 336 335 335 334 333 334 333 332 331 330 329 329 329 329 329 329 329 330 330 330 330 330 330 330 330 330 329 329 328
337 337 336 336 334 333 334 336 336 336 337 337 337 337 338 338 338 337 337 338 337 337 338 339 339 338 338 339 338 338 338 337 336 335 334 334 333 333 332 331 331 330 329 329 329 329 329 330 329 329 330 329 329 329 329 330 329 329 330 330 329 328
337 337 336 336 335 334 335 336 336 337 336 337 337 337 337 337 337 337 337 338 337 337 339 339 339 338 338 338 338 337 337 336 335 334 333 333 332 332 331 330 329 328 328 328 328 329 329 329 330 330 329 328 329 329 329 329 329 329 329 330 329 328
337 337 336 336 335 335 336 336 336 337 336 336 336 336 336 337 337 337 337 337 337 338 339 339 339 339 338 338 338 337 336 335 334 333 332 332 331 330 329 329 328 328 328 328 328 329 329 329 328 328 328 328 329 329 329 329 329 328 328 329 329 329
337 336 336 335 335 335 335 335 336 336 336 336 335 335 335 336 337 337 336 336 337 339 339 339 339 338 338 337 337 336 335 334 333 332 331 330 329 329 328 328 328 328 328 328 328 328 329 328 327 327 327 328 327 326 326 326 326 326 327 328 329 328
336 336 336 335 335 334 334 334 335 335 335 335 335 335 334 335 336 336 336 337 338 339 339 338 337 337 336 335 335 334 333 332 331 330 329 329 328 327 327 327 327 327 327 328 328 328 328 327 326 326 326 325 323 322 322 322 321 322 324 325 325 326
336 335 336 335 335 335 334 335 335 335 335 335 335 335 334 335 336 336 336 338 338 338 337 336 335 336 335 334 333 333 331 330 329 328 328 327 327 326 326 326 326 327 327 327 327 326 324 323 323 322 321 320 319 319 318 318 318 319 320 320 322 323
335 336 335 335 335 334 333 334 335 334 335 335 336 336 335 335 336 336 336 338 338 338 336 335 335 334 333 332 331 331 330 328 327 327 326 325 325 324 324 325 326 326 326 324 323 322 321 320 320 319 318 318 317 317 317 317 317 316 316 316 318 319
335 336 335 335 335 333 332 334 335 335 335 336 337 336 335 335 336 336 337 338 338 337 336 335 334 333 331 330 330 329 328 327 326 325 325 324 323 323 324 325 325 324 323 321 321 320 319 318 318 317 317 316 316 315 315 314 314 314 313 313 314 315
335 335 335 335 336 335 333 334 336 335 336 336 336 336 336 335 336 336 337 338 337 335 335 334 333 331 329 329 329 328 327 325 325 324 323 323 323 323 325 325 324 322 321 320 320 319 317 317 316 315 314 314 313 313 312 312 312 312 312 312 312 314
335 335 335 335 336 335 334 334 335 335 336 336 336 336 336 335 335 336 337 338 336 334 333 332 331 330 328 328 327 326 325 324 323 322 322 323 323 324 324 323 321 320 319 319 319 317 315 314 313 312 312 312 311 311 311 310 310 310 310 310 311 313

ECMWFFLT2_925_thetae_150.txt.gz
Theta_e
344 343 344 343 344 344 342 341 342 341 341 341 340 339 340 340 340 340 340 339 337 336 336 335 335 335 336 335 334 335 333 328 326 327 328 328 328 328 328 327 326 326 325 325 324 326 327 327 328 329 331 329 327 333 337 336 335 334 334 334 334 336
344 344 344 343 344 345 342 342 342 341 341 341 340 340 341 341 340 339 339 338 336 336 336 335 335 335 335 335 333 332 332 328 326 327 328 329 328 328 328 328 328 327 327 325 324 328 329 327 326 326 328 329 331 336 336 336 336 334 334 334 334 335
344 344 343 344 344 345 343 342 343 342 342 342 342 341 341 341 339 337 336 337 336 335 335 335 335 336 335 336 334 330 332 328 325 327 327 328 328 328 328 327 327 326 326 326 327 331 331 330 329 326 327 331 335 336 336 336 336 334 333 333 334 335
344 344 343 343 343 344 343 343 344 343 343 344 343 342 342 340 337 335 335 335 335 334 335 334 335 336 335 337 334 328 331 328 325 327 327 329 329 327 327 327 326 325 326 327 328 330 329 330 332 329 331 334 335 335 336 335 334 333 332 332 333 335
344 344 343 343 343 343 343 343 344 344 344 344 343 342 342 339 336 335 335 335 335 334 335 335 335 336 336 337 335 331 332 330 330 330 328 333 333 329 329 329 328 327 329 330 330 331 330 330 331 330 332 334 334 334 335 334 334 333 333 333 334 334
343 343 342 342 342 343 343 343 344 344 344 344 343 342 341 338 334 334 335 336 336 335 335 336 336 337 337 337 336 335 335 335 337 335 331 335 335 332 331 330 330 330 331 331 332 332 332 332 331 330 331 332 333 334 334 333 334 334 334 334 335 334
342 342 342 342 342 342 342 344 345 344 344 344 343 342 340 336 334 335 336 335 335 335 336 337 337 338 338 337 337 337 337 337 338 336 334 335 334 333 331 331 332 333 333 332 333 332 332 332 332 330 331 332 332 333 333 333 333 334 335 335 336 336
341 341 342 341 342 341 342 344 344 344 343 343 343 341 339 335 335 335 335 335 334 336 336 336 337 338 337 337 337 337 337 336 336 336 334 335 334 331 331 333 335 334 333 332 332 333 332 333 333 332 331 332 332 333 333 334 335 336 336 336 337 337
341 341 341 341 341 341 342 344 344 344 343 343 342 341 338 335 336 335 335 334 334 336 336 336 336 336 335 336 336 335 335 334 334 335 333 333 332 331 333 335 336 336 335 335 335 336 336 336 336 335 334 334 334 335 335 337 338 338 338 337 337 337
340 341 341 341 341 341 343 344 344 344 343 342 341 340 337 336 336 335 334 334 334 336 337 336 336 333 332 334 333 331 332 332 332 333 331 331 331 333 337 338 338 339 339 338 338 339 338 338 338 337 337 337 337 337 337 338 338 338 338 338 338 338
340 341 341 341 341 342 343 344 344 344 343 342 341 340 337 337 336 334 334 335 335 337 338 337 336 335 333 332 331 331 332 332 333 333 333 334 335 337 340 340 341 341 341 341 339 339 339 338 338 337 337 336 336 337 337 337 337 338 338 338 338 338
340 341 341 341 341 342 343 343 343 344 343 342 341 339 337 336 336 335 337 337 337 338 339 339 339 338 336 335 335 335 336 337 338 338 338 339 339 341 341 341 342 342 342 341 340 339 339 338 338 337 336 335 335 336 336 336 336 337 337 338 338 338
339 340 341 341 341 342 342 343 343 343 343 342 341 339 337 336 336 337 338 338 338 339 339 340 340 340 339 339 340 340 340 340 341 341 341 342 342 342 341 342 342 342 341 340 339 339 338 337 337 336 335 335 336 336 336 336 336 337 337 338 338 338
339 340 341 341 341 342 342 343 343 343 343 342 341 340 337 336 337 337 338 338 339 340 340 341 340 341 340 340 341 340 341 341 341 341 342 342 342 342 342 342 341 340 339 339 338 337 337 337 336 335 335 336 337 337 337 337 336 337 337 337 337 338
339 340 341 341 342 342 343 343 342 342 343 342 342 340 338 337 337 337 338 339 340 340 340 341 341 341 341 341 340 340 341 341 341 342 342 343 343 342 341 340 340 338 338 337 336 336 337 336 337 337 337 339 338 337 337 336 335 336 336 336 336 337
339 340 341 341 341 342 343 343 342 343 343 342 342 340 338 337 337 337 338 339 340 341 341 341 341 341 341 340 340 341 341 341 342 343 343 343 343 341 340 340 339 339 338 337 334 335 337 337 339 340 340 339 337 337 336 335 335 335 335 336 335 335
339 340 341 341 342 342 343 343 342 343 342 342 341 340 338 337 338 339 339 340 341 341 341 342 342 341 340 340 341 341 342 342 343 344 344 342 341 340 340 340 339 339 339 338 336 337 339 339 339 339 338 337 337 336 334 334 335 334 334 335 334 335
339 339 340 341 342 342 342 342 342 342 342 342 341 340 339 338 339 340 341 341 341 342 342 342 342 341 341 341 341 342 343 343 343 344 343 341 340 339 339 340 340 340 340 339 339 339 340 338 337 337 336 336 336 335 333 333 334 334 334 334 334 333
339 339 340 341 341 342 341 341 341 341 341 341 342 341 340 339 340 341 342 342 342 342 342 342 341 341 341 341 342 342 343 343 343 343 341 339 339 339 339 340 339 339 339 339 339 338 338 338 337 336 335 335 336 335 333 333 334 334 333 333 332 332
339 339 339 341 340 340 340 340 340 340 340 341 341 341 340 340 341 342 342 342 343 342 343 342 341 341 341 341 342 343 343 343 343 341 340 339 339 339 339 339 339 339 339 338 338 337 337 337 335 334 335 334 335 335 334 333 333 333 332 332 331 331
338 338 339 339 340 339 339 340 340 340 340 341 341 341 341 341 342 342 342 343 343 343 343 342 341 341 341 341 342 343 343 343 342 340 339 339 339 339 339 338 338 338 338 337 336 337 336 334 334 334 333 334 334 334 333 332 332 332 331 331 331 330
338 338 338 338 339 339 338 339 339 339 340 340 341 341 341 341 341 342 342 342 343 343 343 341 340 341 340 340 342 343 343 342 341 340 340 339 339 339 338 337 337 336 336 336 335 336 335 333 332 332 333 333 333 332 332 332 332 331 330 330 330 330
338 338 338 338 339 339 338 339 339 340 340 340 341 341 340 341 341 342 342 342 344 344 343 341 340 341 340 340 341 343 342 341 341 340 340 339 339 338 338 337 336 335 335 334 334 335 334 333 331 331 331 333 332 331 332 332 331 330 330 330 331 331
338 337 337 338 338 338 338 338 338 339 340 340 340 341 340 340 341 342 342 342 343 343 342 341 341 341 340 340 341 342 341 341 340 340 340 339 338 337 337 336 335 334 333 332 332 332 333 333 331 330 330 331 331 332 332 331 330 330 330 331 331 330
337 336 337 338 338 338 338 337 337 338 339 340 340 340 340 340 341 341 342 341 342 343 342 341 342 341 341 341 342 341 340 340 339 339 339 338 338 337 336 335 334 333 333 333 332 331 331 332 331 330 330 330 331 331 331 330 330 332 331 330 330 330
336 335 336 337 337 337 337 337 338 338 339 340 339 339 340 340 340 341 341 341 341 342 341 342 342 342 342 342 342 340 339 339 339 339 338 338 337 337 335 334 333 332 332 333 332 330 329 330 330 331 330 330 331 330 330 329 328 329 330 329 330 330
337 336 337 337 336 337 337 336 338 339 338 339 339 339 340 340 340 341 340 341 340 341 341 343 343 342 342 342 341 340 339 339 339 338 338 338 337 336 335 334 334 333 332 331 331 330 329 328 329 330 330 329 329 330 330 330 329 329 329 329 329 329
337 337 337 336 336 337 337 337 337 338 337 337 337 338 340 340 340 340 340 341 341 341 342 343 343 342 341 341 341 339 339 338 338 338 337 337 336 336 335 334 334 333 332 331 330 330 329 329 329 329 329 328 329 329 329 329 330 330 329 328 328 328
337 337 337 337 336 337 337 337 337 337 336 336 337 338 339 340 340 340 341 342 341 342 343 343 343 342 341 341 340 339 338 338 337 337 336 336 336 335 334 334 333 332 331 330 330 329 329 329 329 329 329 328 328 328 327 327 328 329 328 327 326 326
338 338 337 337 337 337 337 338 338 337 336 336 337 339 339 339 339 340 342 342 341 341 342 342 342 341 341 341 340 338 338 337 337 337 336 335 335 334 334 333 332 331 330 329 329 329 329 329 329 329 328 327 327 326 326 326 326 326 326 326 325 325
338 338 338 337 337 337 337 338 339 338 337 336 338 339 339 339 340 341 342 342 341 340 341 341 341 341 341 341 339 338 337 337 337 336 336 335 334 334 333 332 330 330 329 328 328 328 328 328 327 327 326 325 325 325 325 325 325 324 324 325 324 324
338 338 338 337 337 337 337 338 338 337 335 333 336 339 339 339 340 341 342 342 340 340 341 340 341 341 341 340 339 338 336 336 336 336 335 334 334 333 332 330 329 329 328 327 327 326 326 325 325 325 324 324 323 323 323 323 322 322 322 322 322 323
339 339 338 338 338 338 338 338 338 336 331 327 331 337 339 340 341 341 342 342 340 340 339 340 340 341 341 340 339 337 336 336 336 335 334 333 332 331 330 329 327 327 326 325 325 324 324 324 323 323 323 323 323 322 322 321 320 320 320 320 321 322
339 339 339 339 338 338 337 337 337 334 329 326 330 335 339 341 341 341 341 341 339 339 339 339 339 339 340 339 338 337 336 336 335 334 333 332 331 330 328 327 326 325 324 324 323 323 323 322 322 321 321 322 322 321 320 319 318 318 318 319 319 320
340 340 340 339 338 337 336 336 336 331 325 327 332 336 338 340 341 341 340 340 339 339 339 338 338 338 339 338 337 336 335 335 334 333 332 330 330 328 326 325 324 324 323 323 322 322 322 321 320 320 320 320 321 319 318 317 317 317 317 317 317 318
340 340 339 338 338 337 336 336 334 328 327 331 334 336 337 338 340 340 340 340 339 338 337 337 338 338 338 338 337 335 335 334 333 331 331 330 328 326 325 324 323 323 322 322 321 321 320 320 319 319 319 319 319 318 316 316 315 316 316 316 316 316
340 339 338 338 338 336 336 335 330 327 331 335 335 335 337 337 339 340 341 340 338 337 337 337 338 337 337 337 335 334 334 333 331 330 330 329 327 325 323 323 322 322 321 320 320 319 319 319 319 319 318 317 317 316 316 316 315 315 315 315 316 316